Wind_Speed
10 10 9 9 10 9 9 10 10 10 9 9 9 8 9 9 9 9 9 9 9 10 11 11 11 12 12 12 12 12 13 13 13 12 12 12 13 13 13 13 13 12 13
9 9 9 10 9 9 10 10 10 9 9 9 9 9 9 9 9 10 10 10 10 11 11 11 11 12 12 12 12 12 12 12 13 13 13 13 14 13 13 13 13 13 13
9 10 9 9 10 10 9 10 10 10 9 9 9 9 9 9 10 10 11 11 11 11 11 12 12 11 11 12 12 12 12 12 13 13 13 14 14 13 13 13 13 14 14
10 10 9 10 10 10 9 9 9 10 10 10 10 9 9 10 10 11 11 11 12 12 12 12 12 12 11 11 12 12 13 14 14 14 14 14 14 14 14 14 13 13 14
11 10 10 10 10 9 10 10 9 10 11 11 11 11 11 11 11 11 12 12 12 13 13 13 13 14 14 13 12 12 12 13 14 14 14 14 15 14 14 14 14 14 14
12 11 11 10 10 10 11 11 11 11 11 11 11 12 12 12 12 12 12 13 14 14 14 15 14 14 15 14 14 13 13 14 14 14 14 14 14 14 14 14 14 14 14
13 12 11 11 11 11 12 12 12 12 12 12 12 12 12 13 13 13 14 14 14 14 15 15 15 14 14 14 14 15 15 15 15 15 15 15 14 15 15 14 14 14 14
13 13 12 12 12 12 12 13 13 13 13 13 13 13 13 13 14 14 14 15 14 15 15 15 14 14 15 15 15 15 16 15 15 15 15 15 14 15 15 14 14 15 15
14 14 13 13 13 13 13 13 14 13 13 13 14 14 14 14 15 15 15 15 15 15 15 15 15 15 15 16 16 16 15 15 15 14 14 14 14 14 15 15 15 15 16
15 15 14 14 15 15 14 14 14 14 14 14 14 15 15 16 16 16 16 15 15 15 15 15 16 16 16 17 16 15 15 16 15 15 15 15 15 15 15 15 15 16 16
16 15 16 16 16 16 16 15 15 15 15 15 16 16 16 16 17 17 16 16 16 16 16 16 16 17 16 16 17 16 15 16 16 15 15 16 16 16 16 16 16 17 17
18 17 17 17 17 17 17 17 17 16 17 17 17 17 17 17 17 17 16 16 17 16 16 16 16 16 16 16 17 17 16 16 16 16 17 17 17 17 17 17 17 18 18
20 20 20 19 19 18 18 18 18 18 18 18 18 18 18 18 18 18 17 17 17 17 17 17 17 18 18 18 18 18 17 17 17 17 18 18 18 18 19 18 19 19 19
22 21 21 21 20 20 19 19 19 19 19 20 20 20 20 19 19 19 19 18 18 18 18 18 19 19 20 20 20 19 19 19 19 19 19 18 19 19 18 19 19 19 19
23 22 22 22 22 21 21 21 21 20 20 20 21 21 20 20 20 20 20 20 19 19 20 20 20 21 21 21 20 20 20 19 19 19 19 19 19 19 18 18 19 19 20
24 24 23 22 22 22 22 22 22 21 21 21 21 21 21 22 22 21 21 21 21 21 22 22 22 22 21 21 21 21 20 19 19 19 19 20 20 20 19 20 20 21 21
25 25 24 24 23 23 24 23 23 23 23 22 22 22 23 23 23 23 22 22 21 22 22 22 22 22 22 21 21 20 20 20 20 20 20 21 21 21 21 21 22 21 21
26 26 25 25 25 25 25 25 25 24 24 24 24 23 23 23 23 23 23 22 22 22 22 22 22 22 22 21 21 21 21 21 21 21 21 21 21 22 22 22 22 22 22
27 27 27 27 27 26 26 27 26 26 26 26 25 25 24 24 24 24 24 24 23 23 22 22 21 22 22 22 21 21 21 21 21 21 21 21 22 22 23 23 23 22 22
28 28 28 28 28 28 28 28 28 27 27 27 27 26 26 25 25 24 24 24 23 23 23 23 22 22 22 22 22 22 22 22 21 21 21 21 22 23 23 23 23 23 23
29 29 29 30 30 30 29 28 28 28 28 28 28 27 27 27 26 25 25 24 24 24 24 24 23 23 22 22 22 22 22 22 22 22 22 22 22 22 23 23 24 24 24
30 30 30 31 31 31 31 29 29 29 29 29 28 28 27 27 27 26 25 25 25 25 25 25 24 24 24 23 23 23 23 23 23 22 23 23 23 23 23 23 23 24 25
31 31 31 31 31 30 30 29 29 29 29 29 29 29 29 28 28 27 26 26 26 25 26 25 25 25 25 25 24 24 24 24 23 23 23 24 23 23 24 24 25 24 24
30 30 30 30 31 30 30 29 29 28 29 30 29 30 29 29 28 28 28 27 27 27 26 26 26 26 26 26 25 25 25 25 25 25 25 25 25 24 24 25 25 24 24
30 30 30 30 30 30 31 31 30 29 29 30 30 30 30 29 29 29 29 28 28 28 27 27 27 27 27 27 27 27 27 27 26 26 26 25 25 25 25 25 25 25 26
31 30 31 31 31 31 31 32 32 31 30 30 31 31 31 30 30 30 29 29 29 29 29 28 28 27 27 27 28 28 28 27 27 27 27 27 26 26 26 26 26 26 26
Wind_Direction
267 264 263 264 263 262 263 264 264 266 270 271 271 270 270 272 275 275 275 276 278 280 280 281 286 289 289 286 279 278 276 275 273 272 269 271 272 271 269 267 266 266 268
263 266 265 264 264 263 264 265 266 267 270 271 268 265 267 272 275 276 276 278 283 285 286 287 288 286 286 285 281 278 274 277 274 271 270 273 271 271 271 267 265 266 267
262 266 267 268 267 265 265 264 266 269 270 269 267 266 268 271 275 277 277 281 283 284 286 288 289 286 282 284 282 280 277 277 275 273 271 272 271 270 271 268 268 268 268
265 265 268 271 269 264 264 266 267 268 268 265 265 268 271 273 276 279 281 282 283 284 286 288 289 288 287 281 280 282 280 277 277 274 272 271 270 269 269 269 269 270 272
264 261 264 269 268 268 267 269 273 273 268 264 264 269 273 275 277 280 281 283 283 284 284 285 286 285 286 285 283 283 280 277 276 274 271 269 272 270 267 268 269 272 275
264 262 266 267 266 268 269 270 273 271 268 267 267 271 274 276 277 278 280 281 282 284 285 285 285 287 287 286 285 286 284 281 279 278 272 272 273 272 267 268 270 273 275
263 261 264 266 268 271 272 272 271 271 271 271 272 273 275 276 277 278 279 281 283 286 287 287 288 287 286 285 286 286 285 283 281 279 275 274 272 272 271 273 272 272 274
258 257 259 264 268 272 273 272 270 272 272 271 272 275 276 276 277 279 280 281 284 286 287 287 288 287 286 287 288 287 284 282 282 279 278 277 273 272 274 275 274 271 272
253 259 260 263 267 269 272 273 270 270 270 271 273 277 279 279 281 282 282 282 284 285 286 287 287 288 288 287 287 284 282 282 281 278 276 277 274 275 277 275 275 275 273
254 258 262 265 267 269 271 272 269 270 269 268 272 276 278 280 282 284 285 283 284 285 285 286 287 287 289 290 287 284 281 281 280 277 275 274 275 277 279 278 277 277 277
255 259 262 263 265 267 270 271 269 269 268 269 271 275 276 278 279 281 282 282 283 284 284 285 285 287 289 292 288 286 279 278 277 275 273 272 273 276 278 278 278 276 278
260 262 263 263 263 266 269 271 272 271 270 268 270 273 275 275 276 278 280 280 282 283 283 285 285 286 286 291 292 288 284 279 276 274 272 271 272 272 273 274 278 279 281
264 267 266 263 263 266 269 271 270 272 272 272 271 273 276 275 275 276 277 279 279 279 280 283 283 284 286 288 290 290 284 279 276 274 272 270 270 272 272 274 278 280 283
264 266 266 264 264 266 268 271 272 274 273 273 273 273 276 276 277 278 278 280 279 277 277 279 280 282 285 287 288 289 285 280 278 276 275 273 272 276 277 278 280 282 284
263 264 264 265 265 266 268 271 272 274 275 275 275 273 274 276 277 279 280 281 281 278 277 280 282 284 286 287 288 288 284 281 278 277 276 275 274 276 278 279 279 281 284
261 261 263 265 267 267 267 269 272 273 274 275 275 275 275 277 276 277 277 279 280 280 281 282 282 282 283 285 287 286 284 282 280 279 277 276 276 277 278 279 280 281 283
259 260 262 264 266 268 268 268 270 271 272 273 275 276 275 276 276 277 277 278 279 279 280 282 282 281 281 282 283 282 283 283 282 280 279 278 278 278 278 279 280 280 280
260 262 263 264 266 268 269 269 270 271 271 273 274 275 275 275 275 277 277 278 279 279 280 281 281 281 282 281 282 281 282 282 281 280 280 280 279 278 277 277 278 278 279
262 264 265 265 266 267 269 268 268 269 270 271 272 272 273 272 273 275 276 277 278 278 279 280 280 280 282 282 280 281 282 283 282 282 283 282 280 279 278 277 276 275 276
264 265 266 266 266 267 268 267 266 268 269 269 271 271 271 272 273 274 275 275 276 276 278 278 279 279 280 279 278 279 281 281 282 283 285 284 282 280 279 278 275 274 275
265 265 266 267 266 267 267 267 266 267 268 269 270 271 271 270 271 272 273 272 273 275 277 277 277 278 278 276 276 277 279 280 280 282 283 284 283 282 281 279 277 277 276
265 266 267 267 267 267 266 266 266 267 267 268 268 268 269 270 270 269 270 270 272 274 276 277 276 276 276 275 275 277 278 278 278 279 281 283 283 282 282 281 279 277 277
266 266 266 266 267 267 266 265 266 267 267 267 266 266 268 268 268 269 269 270 271 272 274 276 276 276 275 275 275 276 276 277 277 277 279 281 282 282 282 281 279 278 277
266 266 266 267 267 266 265 264 265 267 266 266 266 266 267 267 267 269 268 269 269 271 274 276 276 276 275 274 274 275 275 275 276 277 280 282 281 281 280 279 278 277 279
266 266 266 266 266 265 265 265 265 267 268 267 266 266 267 268 267 267 266 267 267 268 271 274 275 276 275 274 274 275 274 274 275 277 279 281 281 280 278 278 279 279 280
265 264 265 265 265 265 265 266 266 267 267 266 265 266 266 265 267 267 265 267 267 267 270 272 275 276 275 274 273 273 274 274 275 276 277 279 280 280 278 278 279 279 280
Height
5866 5866 5866 5865 5865 5865 5864 5864 5864 5863 5863 5862 5862 5861 5861 5860 5860 5859 5858 5858 5857 5856 5855 5855 5853 5852 5851 5850 5848 5848 5847 5847 5846 5846 5846 5846 5846 5845 5845 5844 5844 5844 5844
5864 5864 5864 5863 5863 5863 5862 5862 5862 5861 5861 5860 5860 5859 5859 5859 5858 5857 5857 5856 5855 5854 5853 5852 5851 5850 5849 5848 5847 5846 5845 5844 5843 5843 5843 5843 5842 5842 5841 5841 5841 5841 5841
5862 5862 5862 5861 5861 5861 5860 5860 5860 5859 5859 5858 5858 5858 5857 5856 5856 5855 5855 5854 5853 5852 5851 5850 5849 5848 5846 5845 5844 5843 5842 5841 5841 5840 5840 5839 5839 5839 5838 5838 5838 5838 5838
5860 5860 5859 5859 5859 5858 5858 5858 5857 5857 5857 5856 5856 5855 5855 5854 5854 5853 5852 5852 5851 5850 5849 5847 5846 5845 5843 5842 5841 5840 5839 5838 5837 5837 5836 5836 5836 5835 5835 5835 5834 5834 5834
5858 5857 5857 5857 5856 5856 5856 5856 5855 5855 5854 5854 5853 5853 5853 5852 5851 5851 5850 5849 5848 5847 5846 5845 5844 5842 5841 5840 5838 5837 5836 5835 5834 5833 5833 5833 5832 5832 5832 5831 5831 5831 5831
5855 5855 5855 5855 5854 5854 5854 5853 5853 5852 5852 5851 5851 5850 5850 5849 5848 5848 5847 5846 5845 5844 5843 5842 5840 5839 5838 5836 5835 5834 5833 5832 5831 5830 5830 5829 5829 5828 5828 5828 5828 5828 5827
5852 5852 5852 5852 5852 5851 5851 5851 5850 5850 5849 5849 5848 5847 5847 5846 5845 5845 5844 5843 5842 5841 5839 5838 5837 5836 5834 5833 5832 5831 5830 5829 5827 5827 5826 5826 5826 5825 5825 5824 5824 5824 5824
5849 5849 5849 5849 5849 5848 5848 5848 5847 5847 5846 5846 5845 5845 5844 5844 5842 5842 5840 5839 5838 5837 5836 5835 5834 5832 5831 5830 5828 5827 5826 5825 5824 5823 5822 5822 5822 5821 5821 5821 5820 5820 5820
5845 5846 5846 5846 5845 5845 5845 5845 5844 5844 5843 5843 5842 5842 5841 5840 5839 5839 5837 5836 5835 5834 5833 5832 5830 5829 5828 5826 5825 5823 5821 5821 5820 5819 5818 5818 5818 5817 5817 5817 5817 5816 5816
5842 5842 5842 5842 5842 5842 5841 5841 5841 5840 5840 5840 5839 5838 5837 5836 5836 5835 5834 5832 5831 5830 5829 5828 5827 5825 5824 5822 5820 5819 5817 5816 5816 5815 5814 5814 5814 5813 5813 5813 5812 5812 5812
5838 5838 5838 5838 5838 5838 5838 5837 5837 5837 5836 5836 5835 5835 5833 5832 5831 5831 5830 5828 5827 5826 5825 5824 5823 5821 5820 5818 5816 5814 5813 5812 5811 5811 5810 5810 5809 5809 5809 5808 5808 5808 5807
5834 5834 5834 5834 5834 5834 5834 5833 5833 5832 5832 5832 5831 5830 5829 5828 5827 5826 5825 5824 5823 5822 5820 5819 5818 5817 5815 5814 5812 5810 5808 5807 5807 5806 5806 5806 5805 5805 5804 5804 5804 5803 5802
5829 5829 5829 5829 5829 5829 5829 5829 5828 5828 5827 5827 5826 5826 5825 5824 5823 5822 5821 5820 5819 5817 5816 5814 5813 5812 5811 5809 5808 5806 5804 5803 5802 5802 5801 5801 5800 5800 5800 5799 5799 5798 5797
5824 5824 5824 5824 5824 5824 5824 5824 5824 5823 5822 5822 5821 5821 5820 5819 5819 5818 5816 5815 5814 5813 5811 5810 5808 5807 5806 5804 5803 5801 5800 5798 5797 5797 5796 5796 5795 5795 5794 5794 5793 5792 5792
5818 5818 5818 5818 5819 5819 5818 5818 5818 5818 5817 5816 5816 5815 5815 5814 5813 5812 5811 5810 5809 5808 5806 5805 5803 5802 5800 5799 5797 5796 5794 5793 5792 5791 5791 5790 5790 5789 5789 5788 5787 5787 5786
5811 5812 5812 5812 5812 5812 5812 5812 5812 5812 5811 5811 5810 5810 5809 5808 5808 5807 5805 5804 5803 5802 5801 5799 5797 5796 5794 5793 5792 5790 5789 5788 5787 5786 5785 5785 5784 5784 5783 5782 5782 5781 5780
5805 5805 5805 5806 5806 5806 5806 5806 5806 5806 5805 5805 5804 5803 5803 5802 5801 5800 5799 5798 5797 5796 5794 5793 5791 5790 5788 5787 5786 5784 5783 5782 5781 5781 5780 5779 5778 5778 5777 5776 5776 5775 5774
5798 5798 5799 5799 5799 5799 5799 5799 5799 5799 5798 5798 5798 5797 5796 5795 5795 5794 5793 5792 5791 5789 5788 5786 5785 5783 5782 5781 5780 5779 5777 5776 5775 5774 5773 5773 5772 5771 5771 5770 5769 5768 5767
5791 5791 5791 5791 5792 5792 5792 5792 5792 5792 5791 5791 5791 5790 5789 5789 5788 5787 5786 5785 5784 5783 5782 5780 5779 5777 5776 5775 5774 5772 5771 5770 5769 5768 5767 5766 5765 5765 5764 5763 5762 5761 5761
5783 5783 5783 5784 5784 5784 5784 5784 5784 5784 5784 5783 5783 5783 5782 5782 5781 5780 5779 5779 5778 5777 5775 5774 5772 5771 5770 5768 5767 5766 5765 5764 5763 5762 5761 5760 5759 5758 5757 5756 5756 5755 5754
5775 5775 5775 5775 5775 5775 5776 5776 5776 5776 5776 5775 5775 5775 5774 5774 5774 5773 5773 5772 5771 5770 5768 5767 5766 5764 5763 5762 5761 5760 5758 5757 5756 5755 5754 5753 5753 5752 5750 5749 5748 5748 5747
5766 5766 5767 5767 5767 5767 5767 5767 5767 5767 5767 5767 5767 5766 5766 5766 5766 5766 5765 5764 5764 5763 5762 5761 5759 5758 5756 5755 5754 5753 5752 5751 5750 5749 5748 5747 5746 5745 5744 5743 5741 5740 5739
5757 5757 5758 5758 5758 5758 5758 5758 5758 5758 5758 5758 5758 5758 5758 5758 5758 5758 5757 5757 5756 5755 5755 5754 5752 5751 5749 5748 5747 5746 5745 5744 5743 5742 5741 5740 5739 5738 5737 5736 5734 5733 5733
5748 5748 5748 5749 5749 5749 5749 5749 5749 5749 5749 5749 5749 5749 5749 5749 5749 5749 5749 5749 5748 5748 5747 5746 5745 5743 5742 5741 5740 5739 5738 5737 5736 5735 5734 5733 5732 5731 5730 5729 5728 5727 5726
5739 5739 5739 5740 5740 5740 5740 5740 5740 5740 5740 5740 5740 5740 5740 5740 5740 5741 5740 5740 5740 5740 5739 5738 5737 5735 5734 5733 5732 5731 5730 5730 5729 5728 5727 5726 5725 5724 5723 5722 5721 5720 5718
5730 5730 5730 5730 5731 5731 5731 5731 5731 5731 5731 5731 5731 5731 5731 5731 5731 5731 5731 5731 5731 5731 5731 5730 5729 5727 5726 5725 5724 5723 5722 5722 5721 5720 5719 5718 5717 5716 5715 5714 5713 5712 5711